AHY176 LTFM-UBBB

Flight info

Callsign AHY176
Flight time N/A
Altitude 37000
Route VICEN UT380 ASMAP UL333 LATGA UT363 ESB UT364 ILHAN UW71 TBN UN61 NOLGA N61 LAGAS M747 LUSAL N319 PENOB T447 INSAN
Aircraft A319/M-SDE3FGHIRWY/LB1

Departure

Time N/A
Airport İstanbul Airport (LTFM)

Arrival

Time 2025-09-09 18:07
Airport Heydar Aliyev International Airport (UBBB)
Time Latitude Longitude Altitude Speed Heading
2025-09-09 17:16 41.19833 42.54250 37124 ft 533 kts 98°
2025-09-09 17:17 41.19702 42.59177 37125 ft 534 kts 98°
2025-09-09 17:19 41.18607 42.98652 37118 ft 536 kts 98°
2025-09-09 17:21 41.17377 43.38272 37129 ft 537 kts 98°
2025-09-09 17:23 41.16011 43.77893 37125 ft 538 kts 98°
2025-09-09 17:25 41.14297 44.22567 37126 ft 539 kts 99°
2025-09-09 17:27 41.12426 44.57121 37060 ft 523 kts 114°
2025-09-09 17:29 41.04278 44.97992 37008 ft 533 kts 114°
2025-09-09 17:31 40.97542 45.31196 36994 ft 535 kts 114°
2025-09-09 17:33 40.88721 45.73917 36963 ft 535 kts 114°
2025-09-09 17:35 40.81720 46.07148 36960 ft 537 kts 114°
2025-09-09 17:37 40.72574 46.49869 36954 ft 538 kts 114°
2025-09-09 17:39 40.65349 46.83002 36918 ft 538 kts 114°
2025-09-09 17:41 40.56961 47.20843 36925 ft 539 kts 114°
2025-09-09 17:43 40.48447 47.58640 36677 ft 538 kts 114°
2025-09-09 17:45 40.39830 47.96264 34778 ft 539 kts 113°
2025-09-09 17:47 40.32097 48.34374 32827 ft 540 kts 111°
2025-09-09 17:49 40.23265 48.76674 27301 ft 525 kts 109°
2025-09-09 17:50 40.20360 48.90400 24685 ft 514 kts 109°
2025-09-09 17:50 40.18473 48.99288 23045 ft 500 kts 108°
2025-09-09 17:51 40.16614 49.07971 21179 ft 493 kts 108°
2025-09-09 17:51 40.15404 49.16750 19368 ft 491 kts 94°
2025-09-09 17:52 40.15160 49.25578 17789 ft 481 kts 93°
2025-09-09 17:52 40.15044 49.29919 17010 ft 475 kts 93°
2025-09-09 17:53 40.15810 49.42490 14893 ft 457 kts 76°
2025-09-09 17:53 40.17260 49.50463 13857 ft 440 kts 76°
2025-09-09 17:54 40.19820 49.57356 13260 ft 413 kts 57°
2025-09-09 17:54 40.22882 49.63594 12106 ft 402 kts 57°
2025-09-09 17:55 40.25872 49.69562 11462 ft 378 kts 57°
2025-09-09 17:55 40.28653 49.75053 11210 ft 347 kts 57°
2025-09-09 17:56 40.30500 49.78672 11047 ft 329 kts 57°
2025-09-09 17:56 40.31753 49.81120 10926 ft 319 kts 57°
2025-09-09 17:57 40.33626 49.88813 10129 ft 297 kts 108°
2025-09-09 17:57 40.31581 49.93384 9427 ft 290 kts 126°
2025-09-09 17:58 40.29311 49.97633 8817 ft 281 kts 126°
2025-09-09 17:58 40.26772 50.01342 8178 ft 271 kts 154°
2025-09-09 17:59 40.23224 50.02701 7535 ft 264 kts 166°
2025-09-09 17:59 40.19666 50.03798 6806 ft 262 kts 166°
2025-09-09 17:59 40.17899 50.04328 6459 ft 260 kts 166°
2025-09-09 18:00 40.14963 50.06906 5399 ft 266 kts 120°
2025-09-09 18:01 40.15703 50.13596 4726 ft 271 kts 43°
2025-09-09 18:01 40.19216 50.14934 4317 ft 274 kts 349°
2025-09-09 18:02 40.22762 50.13085 3914 ft 274 kts 337°
2025-09-09 18:02 40.26245 50.11115 3508 ft 270 kts 338°
2025-09-09 18:03 40.29583 50.09267 3091 ft 252 kts 342°
2025-09-09 18:03 40.32883 50.08114 2473 ft 237 kts 349°
2025-09-09 18:03 40.34447 50.07633 2161 ft 229 kts 348°
2025-09-09 18:04 40.37342 50.06728 1656 ft 198 kts 348°
2025-09-09 18:05 40.40695 50.05673 966 ft 169 kts 348°
2025-09-09 18:05 40.42840 50.05009 568 ft 149 kts 347°
2025-09-09 18:06 40.44740 50.04395 211 ft 135 kts 348°
2025-09-09 18:06 40.46540 50.03841 11 ft 126 kts 346°
2025-09-09 18:07 40.47425 50.03562 13 ft 2 kts 347°
2025-09-09 18:07 40.48301 50.03368 67 ft 134 kts
2025-09-09 18:08 40.48515 50.05390 797 ft 122 kts 149°
2025-09-09 18:08 40.48206 50.05681 5 ft 13 kts 173°